N2XGL-1 Weather Reports


Display with metric or nautical units.
time (UTC)temp
F
wind
direction
speed
MPH
gust
MPH
rain 1hr
in
rain 24hr
in
rain mn
in
humidity
%
barometer
mb
20260504001808 70 248 11.0 18.0 0.00 0.00 0.00 26 1001.7
20260504000813 70 248 9.0 14.0 0.00 0.00 0.00 26 1001.8
20260503235841 69 225 3.0 5.0 0.00 0.00 0.00 23 1001.8
20260503234903 69 202 5.0 14.0 0.00 0.00 0.00 26 1001.8
20260503234516 69 270 9.0 16.0 0.00 0.00 0.00 24 1002.1
20260503233943 69 270 9.0 16.0 0.00 0.00 0.00 24 1002.1
20260503233511 70 270 8.0 17.0 0.00 0.00 0.00 23 1002.2
20260503233113 70 270 8.0 17.0 0.00 0.00 0.00 23 1002.2
20260503232515 69 270 14.0 33.0 0.00 0.00 0.00 21 1002.1
20260503232223 69 270 14.0 33.0 0.00 0.00 0.00 21 1002.1
20260503231258 70 270 10.0 33.0 0.00 0.00 0.00 24 1001.8
20260503225521 70 248 11.0 19.0 0.00 0.00 0.00 25 1001.7
20260503225348 70 248 11.0 19.0 0.00 0.00 0.00 25 1001.7
20260503224541 70 270 10.0 19.0 0.00 0.00 0.00 24 1001.7
20260503223618 71 270 9.0 20.0 0.00 0.00 0.00 24 1002.1
20260503222619 71 270 9.0 14.0 0.00 0.00 0.00 24 1002.1
20260503220854 72 248 5.0 10.0 0.00 0.00 0.00 23 1002.0
20260503215941 73 270 13.0 21.0 0.00 0.00 0.00 21 1002.2
20260503214113 74 270 11.0 19.0 0.00 0.00 0.00 21 1002.3
20260503213249 74 270 9.0 15.0 0.00 0.00 0.00 18 1002.4
20260503212314 75 270 11.0 20.0 0.00 0.00 0.00 19 1002.5
20260503211349 75 270 9.0 18.0 0.00 0.00 0.00 18 1002.6
20260503210407 74 315 2.0 4.0 0.00 0.00 0.00 16 1002.7
20260503205413 74 0 5.0 9.0 0.00 0.00 0.00 18 1002.8
20260503204414 74 315 2.0 5.0 0.00 0.00 0.00 14 1003.0
20260503203432 74 22 2.0 7.0 0.00 0.00 0.00 15 1003.1
20260503203013 74 0 3.0 6.0 0.00 0.00 0.00 16 1003.1
20260503202538 74 0 3.0 6.0 0.00 0.00 0.00 16 1003.1
20260503201636 75 135 3.0 4.0 0.00 0.00 0.00 17 1003.3
20260503201541 75 135 3.0 4.0 0.00 0.00 0.00 17 1003.3
20260503200734 75 0 3.0 5.0 0.00 0.00 0.00 15 1003.4
20260503200015 77 270 7.0 14.0 0.00 0.00 0.00 19 1003.5
20260503195838 77 270 7.0 14.0 0.00 0.00 0.00 19 1003.5
20260503194908 75 248 4.0 10.0 0.00 0.00 0.00 18 1003.7
20260503193913 76 0 5.0 11.0 0.00 0.00 0.00 18 1003.8
20260503192913 78 248 4.0 10.0 0.00 0.00 0.00 17 1004.1
20260503191928 77 135 2.0 4.0 0.00 0.00 0.00 17 1004.2
20260503191048 78 248 4.0 10.0 0.00 0.00 0.00 17 1004.3
20260503185339 76 248 5.0 12.0 0.00 0.00 0.00 18 1004.6
20260503184448 75 248 8.0 17.0 0.00 0.00 0.00 18 1004.8
20260503183608 75 248 5.0 14.0 0.00 0.00 0.00 22 1004.9
20260503181913 76 248 7.0 14.0 0.00 0.00 0.00 18 1005.4
20260503181838 76 248 7.0 14.0 0.00 0.00 0.00 18 1005.4
20260503180938 75 270 6.0 13.0 0.00 0.00 0.00 20 1005.6
20260503174149 73 248 10.0 15.0 0.00 0.00 0.00 18 1006.1
20260503173331 73 248 13.0 21.0 0.00 0.00 0.00 19 1006.3
20260503172358 73 248 12.0 20.0 0.00 0.00 0.00 20 1006.4
20260503171521 72 270 12.0 18.0 0.00 0.00 0.00 19 1006.6
20260503170648 72 248 11.0 19.0 0.00 0.00 0.00 19 1006.7
20260503150418 71 270 12.0 20.0 0.00 0.00 0.00 23 1007.5
20260503140158 64 270 9.0 18.0 0.00 0.00 0.00 28 1008.1
20260503130908 51 225 1.0 3.0 0.00 0.00 0.00 47 1008.4
20260503110618 49 158 2.0 3.0 0.00 0.00 0.00 48 1008.1
20260503090353 50 0 0.0 2.0 0.00 0.00 0.00 46 1008.8
20260503080738 52 248 1.0 2.0 0.00 0.00 0.00 33 1009.3
20260503072410 52 270 6.0 10.0 0.00 0.00 0.00 36 1009.7
20260503072153 52 270 6.0 10.0 0.00 0.00 0.00 36 1009.7
20260503071248 52 292 3.0 6.0 0.00 0.00 0.00 35 1009.9
20260503070438 52 45 1.0 4.0 0.00 0.00 0.00 35 1009.9
20260503060158 51 292 5.0 11.0 0.00 0.00 0.00 33 1010.3
20260503054433 51 292 4.0 9.0 0.00 0.00 0.00 35 1010.3
20260503053531 51 292 4.0 7.0 0.00 0.00 0.00 35 1010.3
20260503051932 51 315 2.0 4.0 0.00 0.00 0.00 28 1010.3
20260503051803 51 315 2.0 4.0 0.00 0.00 0.00 28 1010.3
20260503050813 51 292 2.0 4.0 0.00 0.00 0.00 28 1010.3
20260503045934 51 292 2.0 5.0 0.00 0.00 0.00 27 1010.4
20260503045841 51 292 2.0 5.0 0.00 0.00 0.00 27 1010.4
20260503044848 51 292 2.0 4.0 0.00 0.00 0.00 26 1010.6
20260503043933 51 292 3.0 6.0 0.00 0.00 0.00 27 1010.8
20260503041108 51 292 1.0 2.0 0.00 0.00 0.00 26 1010.7
20260503040308 51 0 0.0 1.0 0.00 0.00 0.00 26 1010.7
20260503040141 51 0 0.0 1.0 0.00 0.00 0.00 26 1010.7
20260503035518 52 0 0.0 2.0 0.00 0.00 0.00 27 1010.6
20260503035321 52 0 0.0 2.0 0.00 0.00 0.00 27 1010.6
20260503034448 52 0 0.0 1.0 0.00 0.00 0.00 27 1010.6
20260503033532 53 270 1.0 2.0 0.00 0.00 0.00 30 1010.5
20260503032608 53 0 0.0 3.0 0.00 0.00 0.00 29 1010.5
20260503031718 54 315 1.0 2.0 0.00 0.00 0.00 27 1010.4
20260503031038 55 0 0.0 1.0 0.00 0.00 0.00 27 1010.4
20260503030918 55 0 0.0 1.0 0.00 0.00 0.00 27 1010.4
20260503030533 55 0 0.0 1.0 0.00 0.00 0.00 28 1010.3
20260503030118 55 0 0.0 1.0 0.00 0.00 0.00 28 1010.3
20260503025514 56 0 0.0 0.0 0.00 0.00 0.00 27 1010.3
20260503025123 56 0 0.0 0.0 0.00 0.00 0.00 27 1010.3
20260503023313 59 0 0.0 1.0 0.00 0.00 0.00 18 1010.2
20260503022313 60 22 1.0 1.0 0.00 0.00 0.00 18 1010.2
20260503021428 61 22 1.0 2.0 0.00 0.00 0.00 17 1010.1
20260503020518 62 22 1.0 2.0 0.00 0.00 0.00 16 1010.0
20260503015628 63 22 1.0 2.0 0.00 0.00 0.00 15 1010.0
20260503014641 64 22 1.0 2.0 0.00 0.00 0.00 14 1010.0
20260503013933 66 45 1.0 1.0 0.00 0.00 0.00 13 1009.9
20260503013821 66 45 1.0 1.0 0.00 0.00 0.00 13 1009.9
20260503012833 67 45 2.0 4.0 0.00 0.00 0.00 13 1009.9
20260503011931 67 45 4.0 9.0 0.00 0.00 0.00 12 1009.8
20260503011853 67 45 4.0 9.0 0.00 0.00 0.00 12 1009.8
20260503010928 68 45 3.0 6.0 0.00 0.00 0.00 13 1009.7
20260503005953 69 68 3.0 7.0 0.00 0.00 0.00 12 1009.6
20260503005008 69 112 4.0 9.0 0.00 0.00 0.00 14 1009.6